TimeCST,TemperatureF,Dew PointF,Humidity,Sea Level PressureIn,VisibilityMPH,Wind Direction,Wind SpeedMPH,Gust SpeedMPH,PrecipitationIn,Events,Conditions,WindDirDegrees,DateUTC
12:13 AM,60.8,59.0,94,29.97,10.0,SE,3.5,-,N/A,,Overcast,140,2013-01-17 06:13:00
12:23 AM,60.8,59.0,94,29.96,10.0,Calm,Calm,-,N/A,,Overcast,0,2013-01-17 06:23:00
12:37 AM,60.8,60.8,100,29.97,10.0,Calm,Calm,-,N/A,,Overcast,0,2013-01-17 06:37:00
12:46 AM,60.8,59.0,94,29.97,10.0,SSE,4.6,-,N/A,Rain,Light Rain,150,2013-01-17 06:46:00
12:53 AM,61.0,59.0,93,29.96,10.0,SSE,4.6,-,N/A,Rain,Light Rain,150,2013-01-17 06:53:00
1:53 AM,61.0,60.1,97,29.94,10.0,South,5.8,-,N/A,,Overcast,190,2013-01-17 07:53:00
2:35 AM,57.2,55.4,94,29.95,2.0,West,11.5,-,N/A,Rain,Light Rain,260,2013-01-17 08:35:00
2:53 AM,55.0,54.0,96,29.96,3.0,West,13.8,23.0,N/A,Rain,Light Rain,260,2013-01-17 08:53:00
3:53 AM,50.0,50.0,100,29.95,10.0,West,8.1,-,N/A,,Overcast,260,2013-01-17 09:53:00
4:53 AM,48.9,48.0,97,29.98,10.0,WSW,12.7,-,N/A,,Overcast,240,2013-01-17 10:53:00
6:28 AM,46.4,44.6,93,30.00,10.0,WSW,13.8,20.7,N/A,,Overcast,250,2013-01-17 12:28:00
6:53 AM,45.0,44.1,97,30.02,10.0,West,17.3,24.2,N/A,,Overcast,260,2013-01-17 12:53:00
7:07 AM,44.6,42.8,93,30.03,10.0,WSW,17.3,-,N/A,,Overcast,250,2013-01-17 13:07:00
7:53 AM,44.1,41.0,89,30.04,7.0,WSW,15.0,-,N/A,,Overcast,250,2013-01-17 13:53:00
7:55 AM,44.6,41.0,87,30.04,6.0,West,13.8,-,0.00,Rain,Light Rain,260,2013-01-17 13:55:00
8:31 AM,44.6,39.2,81,30.04,10.0,West,16.1,23.0,0.00,,Overcast,260,2013-01-17 14:31:00
8:53 AM,43.0,39.9,89,30.04,10.0,West,13.8,-,0.00,,Overcast,260,2013-01-17 14:53:00
9:00 AM,44.6,41.0,87,30.05,10.0,WSW,15.0,19.6,N/A,,Overcast,250,2013-01-17 15:00:00
9:53 AM,41.0,36.0,82,30.07,10.0,WSW,17.3,26.5,0.00,,Overcast,250,2013-01-17 15:53:00
10:53 AM,43.0,37.0,80,30.05,10.0,West,18.4,29.9,0.00,,Overcast,260,2013-01-17 16:53:00
11:53 AM,43.0,35.1,74,30.05,10.0,West,23.0,32.2,0.00,,Overcast,260,2013-01-17 17:53:00
12:25 PM,41.0,35.6,81,30.04,10.0,West,19.6,29.9,0.04,Rain,Light Rain,260,2013-01-17 18:25:00
12:53 PM,39.9,35.1,83,30.05,10.0,West,18.4,32.2,0.04,Rain,Light Rain,270,2013-01-17 18:53:00
1:53 PM,39.0,30.9,73,30.06,10.0,West,19.6,28.8,0.00,,Overcast,270,2013-01-17 19:53:00
2:53 PM,37.9,32.0,79,30.08,10.0,West,15.0,-,0.00,,Overcast,280,2013-01-17 20:53:00
3:53 PM,39.0,30.9,73,30.11,10.0,WNW,17.3,-,N/A,,Overcast,290,2013-01-17 21:53:00
4:53 PM,39.9,32.0,73,30.14,10.0,WNW,19.6,26.5,N/A,,Overcast,290,2013-01-17 22:53:00
5:53 PM,41.0,33.1,73,30.19,10.0,WNW,18.4,25.3,N/A,,Overcast,300,2013-01-17 23:53:00
6:53 PM,41.0,33.1,73,30.22,10.0,NW,23.0,33.4,N/A,,Overcast,320,2013-01-18 00:53:00
7:51 PM,42.8,33.8,70,30.23,10.0,NW,18.4,28.8,N/A,,Overcast,320,2013-01-18 01:51:00
7:53 PM,42.1,33.1,70,30.24,10.0,NW,18.4,28.8,N/A,,Overcast,320,2013-01-18 01:53:00
8:53 PM,42.1,33.1,70,30.25,10.0,NNW,19.6,26.5,N/A,,Overcast,330,2013-01-18 02:53:00
9:53 PM,42.1,34.0,73,30.26,10.0,NNW,20.7,28.8,N/A,,Overcast,340,2013-01-18 03:53:00
10:53 PM,39.9,34.0,79,30.27,10.0,North,13.8,-,N/A,,Clear,350,2013-01-18 04:53:00
11:53 PM,39.9,33.1,77,30.29,10.0,North,12.7,20.7,N/A,,Clear,350,2013-01-18 05:53:00